Hourly Weather Świebodzin

Today, 12 July, Sunday

Time Temperature Precipitation Wind Pressure Humidity
00:00 +13°C° 0 mm 2 mps 760 mmHg 78%
01:00 +12°C° 0 mm 2 mps 761 mmHg 82%
02:00 +12°C° 0 mm 1 mps 761 mmHg 84%
03:00 +12°C° 0 mm 1 mps 761 mmHg 86%
04:00 +11°C° 0 mm 1 mps 761 mmHg 88%
05:00 +13°C° 0 mm 2 mps 761 mmHg 82%
06:00 +14°C° 0 mm 2 mps 761 mmHg 76%
07:00 +16°C° 0 mm 2 mps 762 mmHg 70%
08:00 +17°C° 0.1 mm 2 mps 762 mmHg 63%
09:00 +18°C° 0.1 mm 3 mps 762 mmHg 57%
10:00 +19°C° 0.1 mm 4 mps 762 mmHg 50%
11:00 +20°C° 0 mm 4 mps 762 mmHg 47%
12:00 +21°C° 0 mm 4 mps 762 mmHg 44%
13:00 +22°C° 0 mm 4 mps 762 mmHg 41%
14:00 +21°C° 0 mm 4 mps 762 mmHg 40%
15:00 +21°C° 0 mm 4 mps 761 mmHg 40%
16:00 +21°C° 0 mm 4 mps 761 mmHg 40%
17:00 +20°C° 0 mm 3 mps 761 mmHg 45%
18:00 +20°C° 0 mm 3 mps 761 mmHg 51%
19:00 +19°C° 0 mm 2 mps 761 mmHg 56%
20:00 +17°C° 0 mm 2 mps 761 mmHg 63%
21:00 +16°C° 0 mm 2 mps 761 mmHg 70%
22:00 +14°C° 0 mm 1 mps 761 mmHg 76%
23:00 +13°C° 0 mm 1 mps 761 mmHg 79%

Tomorrow, 13 July, Monday

Time Temperature Precipitation Wind Pressure Humidity
00:00 +13°C° 0 mm 1 mps 762 mmHg 81%
01:00 +13°C° 0 mm 2 mps 762 mmHg 84%
02:00 +12°C° 0 mm 1 mps 762 mmHg 86%
03:00 +12°C° 0 mm 1 mps 761 mmHg 88%
04:00 +11°C° 0 mm 1 mps 761 mmHg 91%
05:00 +13°C° 0 mm 2 mps 761 mmHg 84%
06:00 +14°C° 0 mm 2 mps 761 mmHg 77%
07:00 +16°C° 0 mm 2 mps 761 mmHg 71%
08:00 +17°C° 0 mm 2 mps 761 mmHg 64%
09:00 +19°C° 0 mm 3 mps 761 mmHg 57%
10:00 +20°C° 0 mm 3 mps 761 mmHg 51%
11:00 +21°C° 0 mm 3 mps 760 mmHg 49%
12:00 +22°C° 0 mm 3 mps 760 mmHg 47%
13:00 +22°C° 0 mm 3 mps 760 mmHg 45%
14:00 +23°C° 0 mm 2 mps 760 mmHg 46%
15:00 +23°C° 0 mm 2 mps 759 mmHg 46%
16:00 +23°C° 0 mm 2 mps 759 mmHg 47%
17:00 +21°C° 0 mm 2 mps 758 mmHg 50%
18:00 +22°C° 0 mm 1 mps 758 mmHg 54%
19:00 +21°C° 0 mm 1 mps 758 mmHg 58%
20:00 +20°C° 0 mm 1 mps 758 mmHg 60%
21:00 +19°C° 0 mm 1 mps 758 mmHg 62%
22:00 +18°C° 0 mm 1 mps 758 mmHg 63%
23:00 +16°C° 0 mm 1 mps 758 mmHg 66%

Day after tomorrow, 14 July, Tuesday

Time Temperature Precipitation Wind Pressure Humidity
00:00 +15°C° 0 mm 0 mps 758 mmHg 69%
01:00 +14°C° 0 mm 0 mps 758 mmHg 71%
02:00 +14°C° 0 mm 1 mps 757 mmHg 74%
03:00 +14°C° 0 mm 1 mps 757 mmHg 77%
04:00 +13°C° 0 mm 1 mps 757 mmHg 79%
05:00 +15°C° 0 mm 1 mps 757 mmHg 73%
06:00 +18°C° 0 mm 1 mps 757 mmHg 68%
07:00 +19°C° 0 mm 1 mps 757 mmHg 62%
08:00 +20°C° 0 mm 2 mps 757 mmHg 56%
09:00 +21°C° 0 mm 2 mps 756 mmHg 51%
10:00 +24°C° 0 mm 2 mps 756 mmHg 45%
11:00 +24°C° 0 mm 2 mps 755 mmHg 45%
12:00 +24°C° 0 mm 2 mps 755 mmHg 44%
13:00 +25°C° 0 mm 2 mps 755 mmHg 44%
14:00 +25°C° 0 mm 2 mps 754 mmHg 43%
15:00 +25°C° 0 mm 2 mps 754 mmHg 43%
16:00 +25°C° 0 mm 2 mps 754 mmHg 42%
17:00 +24°C° 0 mm 2 mps 753 mmHg 47%
18:00 +24°C° 0 mm 2 mps 753 mmHg 52%
19:00 +23°C° 0 mm 2 mps 753 mmHg 57%
20:00 +21°C° 0 mm 2 mps 753 mmHg 59%
21:00 +20°C° 0 mm 2 mps 753 mmHg 62%
22:00 +18°C° 0 mm 2 mps 753 mmHg 65%
23:00 +18°C° 0.1 mm 2 mps 753 mmHg 68%

15 July, Wednesday

Time Temperature Precipitation Wind Pressure Humidity
00:00 +17°C° 0.1 mm 2 mps 753 mmHg 72%
01:00 +17°C° 0.1 mm 2 mps 753 mmHg 75%
02:00 +17°C° 0.1 mm 2 mps 752 mmHg 78%
03:00 +16°C° 0.1 mm 2 mps 752 mmHg 80%
04:00 +16°C° 0.1 mm 2 mps 752 mmHg 83%
05:00 +18°C° 0 mm 1 mps 752 mmHg 82%
06:00 +18°C° 0 mm 1 mps 752 mmHg 81%
07:00 +19°C° 0 mm 1 mps 752 mmHg 81%
08:00 +20°C° 0.1 mm 1 mps 752 mmHg 74%
09:00 +21°C° 0.1 mm 2 mps 751 mmHg 68%
10:00 +23°C° 0.1 mm 2 mps 751 mmHg 61%
11:00 +22°C° 1.1 mm 3 mps 751 mmHg 63%
12:00 +22°C° 1.1 mm 3 mps 751 mmHg 65%
13:00 +22°C° 1.1 mm 3 mps 750 mmHg 67%
14:00 +22°C° 0.8 mm 3 mps 750 mmHg 71%
15:00 +21°C° 0.8 mm 3 mps 750 mmHg 74%
16:00 +20°C° 0.8 mm 2 mps 750 mmHg 77%
17:00 +19°C° 0.6 mm 3 mps 750 mmHg 83%
18:00 +18°C° 0.6 mm 3 mps 749 mmHg 88%
19:00 +17°C° 0.6 mm 3 mps 749 mmHg 93%
20:00 +16°C° 0.8 mm 3 mps 749 mmHg 94%
21:00 +16°C° 0.8 mm 3 mps 749 mmHg 94%
22:00 +14°C° 0.8 mm 3 mps 750 mmHg 95%
23:00 +14°C° 1.2 mm 4 mps 750 mmHg 95%

16 July, Thursday

Time Temperature Precipitation Wind Pressure Humidity
00:00 +13°C° 1.2 mm 4 mps 750 mmHg 95%
01:00 +13°C° 1.2 mm 4 mps 750 mmHg 94%
02:00 +13°C° 0.3 mm 4 mps 750 mmHg 94%
03:00 +13°C° 0.3 mm 4 mps 750 mmHg 94%
04:00 +12°C° 0.3 mm 4 mps 750 mmHg 93%
05:00 +13°C° 0.1 mm 4 mps 750 mmHg 93%
06:00 +13°C° 0.1 mm 4 mps 750 mmHg 92%
07:00 +13°C° 0.1 mm 5 mps 750 mmHg 92%
08:00 +13°C° 0.4 mm 5 mps 750 mmHg 91%
09:00 +13°C° 0.4 mm 5 mps 750 mmHg 91%
10:00 +13°C° 0.4 mm 5 mps 750 mmHg 90%
11:00 +13°C° 0.5 mm 5 mps 750 mmHg 90%
12:00 +13°C° 0.5 mm 5 mps 750 mmHg 90%
13:00 +13°C° 0.5 mm 5 mps 750 mmHg 89%
14:00 +13°C° 0.5 mm 5 mps 750 mmHg 90%
15:00 +13°C° 0.5 mm 5 mps 750 mmHg 91%
16:00 +13°C° 0.5 mm 5 mps 750 mmHg 91%
17:00 +13°C° 0.9 mm 5 mps 750 mmHg 93%
18:00 +13°C° 0.9 mm 4 mps 750 mmHg 94%
19:00 +13°C° 0.9 mm 3 mps 750 mmHg 96%
20:00 +13°C° 0.3 mm 3 mps 750 mmHg 96%
21:00 +13°C° 0.3 mm 4 mps 750 mmHg 95%
22:00 +14°C° 0.3 mm 4 mps 750 mmHg 95%
23:00 +13°C° 0 mm 3 mps 750 mmHg 95%

17 July, Friday

Time Temperature Precipitation Wind Pressure Humidity
00:00 +13°C° 0 mm 3 mps 750 mmHg 96%
01:00 +13°C° 0 mm 3 mps 751 mmHg 96%
02:00 +13°C° 0 mm 3 mps 751 mmHg 96%
03:00 +13°C° 0 mm 3 mps 752 mmHg 96%
04:00 +13°C° 0 mm 3 mps 752 mmHg 96%
05:00 +14°C° 0 mm 3 mps 753 mmHg 94%
06:00 +16°C° 0 mm 3 mps 753 mmHg 92%
07:00 +15°C° 0 mm 4 mps 754 mmHg 90%
08:00 +18°C° 0.1 mm 4 mps 754 mmHg 83%
09:00 +20°C° 0.1 mm 4 mps 754 mmHg 75%
10:00 +21°C° 0.1 mm 4 mps 754 mmHg 68%
11:00 +22°C° 0.7 mm 4 mps 754 mmHg 66%
12:00 +23°C° 0.7 mm 5 mps 754 mmHg 64%
13:00 +23°C° 0.7 mm 5 mps 754 mmHg 62%
14:00 +25°C° 0.2 mm 5 mps 754 mmHg 58%
15:00 +25°C° 0.2 mm 5 mps 755 mmHg 54%
16:00 +25°C° 0.2 mm 5 mps 755 mmHg 50%
17:00 +23°C° 0 mm 5 mps 755 mmHg 55%
18:00 +22°C° 0 mm 4 mps 755 mmHg 59%
19:00 +20°C° 0 mm 3 mps 755 mmHg 63%
20:00 +19°C° 0 mm 3 mps 755 mmHg 68%
21:00 +17°C° 0 mm 3 mps 756 mmHg 73%
22:00 +16°C° 0 mm 2 mps 756 mmHg 77%
23:00 +15°C° 0 mm 2 mps 756 mmHg 80%
Show more